Weather History for Mansfield, OH

Change the Weather History Date:

Friday, May 24, 2013

  Actual Average Record
Temperature  
Mean Temperature 45 °F 61 °F  
Max Temperature 53 °F 72 °F 85 °F (2007)
Min Temperature 36 °F 51 °F 32 °F (1945)
Degree Days  
Heating Degree Days 20 6  
Month to date heating degree days 114 199  
Since 1 July heating degree days 5942 6184  
Cooling Degree Days 0 2  
Month to date cooling degree days 53 22  
Year to date cooling degree days 59 30  
Moisture  
Dew Point 36 °F    
Average Humidity 75    
Maximum Humidity 96    
Minimum Humidity 54    
Precipitation  
Precipitation 0.00 in 0.16 in 1.27 in (1979)
Month to date precipitation 1.68 3.41  
Year to date precipitation 13.15 16.20  
Snow  
Snow 0.00 in 0.00 in - ()
Month to date snowfall 0.0 0.0  
Since 1 July snowfall 39.4 48.3  
Snow Depth 0.00 in    
Sea Level Pressure  
Sea Level Pressure 30.23 in    
Wind  
Wind Speed 11 mph (NNW)    
Max Wind Speed 20 mph    
Max Gust Speed 28 mph    
Visibility 10 miles    
Events      
T = Trace of Precipitation, MM = Missing Value Source: NWS Daily Summary

Daily Weather History Graph

Daily Weather History Graph

Search for Another Location

Airport:

Trip Planner

Search our weather history database for the weather conditions in past years. The results will help you decide how hot, cold, wet, or windy it might be!

Date:

Astronomy

May. 24, 2013 Rise Set
Actual Time 6:05 AM EDT 8:49 PM EDT
Civil Twilight 5:33 AM EDT 9:21 PM EDT
Nautical Twilight 4:52 AM EDT 10:01 PM EDT
Astronomical Twilight 4:07 AM EDT 10:47 PM EDT
Moon 8:29 PM EDT 5:36 AM EDT
Length of Visible Light 15h 48m
Length of Day
14h 44m
Full, 100% of the Moon is Illuminated
May 24
Full
May 25
Full
May 31
Last Quarter
Jun 8
New
Jun 16
First Quarter

Hourly Weather History & Observations

Time (EDT) Temp. Windchill Dew Point Humidity Pressure Visibility Wind Dir Wind Speed Gust Speed Precip Events Conditions
12:52 AM 43.0 °F 35.1 °F 41.0 °F 93% 30.09 in 10.0 mi NNW 17.3 mph 24.2 mph N/A   Overcast
1:11 AM 42.8 °F 35.8 °F 41.0 °F 93% 30.09 in 10.0 mi NNW 13.8 mph 27.6 mph N/A   Overcast
1:36 AM 44.6 °F 38.4 °F 39.2 °F 81% 30.10 in 10.0 mi NNW 12.7 mph 19.6 mph N/A   Overcast
1:52 AM 44.1 °F 37.7 °F 39.0 °F 82% 30.10 in 10.0 mi North 12.7 mph - N/A   Overcast
2:24 AM 44.6 °F 38.1 °F 37.4 °F 76% 30.09 in 10.0 mi NNW 13.8 mph - N/A   Overcast
2:52 AM 44.1 °F 35.9 °F 37.9 °F 79% 30.10 in 10.0 mi NNW 19.6 mph 23.0 mph N/A   Overcast
3:09 AM 42.8 °F 36.6 °F 37.4 °F 81% 30.10 in 10.0 mi NNW 11.5 mph - N/A   Mostly Cloudy
3:52 AM 43.0 °F 35.4 °F 37.0 °F 80% 30.12 in 10.0 mi NNW 16.1 mph 23.0 mph N/A   Overcast
4:52 AM 41.0 °F 34.3 °F 36.0 °F 82% 30.15 in 10.0 mi NNW 11.5 mph - N/A   Scattered Clouds
5:52 AM 41.0 °F 33.5 °F 36.0 °F 82% 30.17 in 10.0 mi NNW 13.8 mph - N/A   Mostly Cloudy
6:52 AM 42.1 °F 34.9 °F 36.0 °F 79% 30.20 in 10.0 mi NNW 13.8 mph - N/A   Overcast
7:20 AM 42.8 °F 36.6 °F 35.6 °F 76% 30.18 in 10.0 mi North 11.5 mph - N/A   Overcast
7:48 AM 42.8 °F 36.2 °F 35.6 °F 76% 30.19 in 10.0 mi NNW 12.7 mph 19.6 mph N/A   Overcast
7:52 AM 43.0 °F 35.4 °F 36.0 °F 76% 30.21 in 10.0 mi North 16.1 mph 19.6 mph N/A   Overcast
8:34 AM 42.8 °F 35.8 °F 35.6 °F 76% 30.22 in 10.0 mi North 13.8 mph 24.2 mph N/A   Overcast
8:52 AM 43.0 °F 35.7 °F 36.0 °F 76% 30.25 in 10.0 mi NNW 15.0 mph 21.9 mph N/A   Overcast
9:52 AM 44.1 °F 37.1 °F 35.1 °F 71% 30.27 in 10.0 mi NW 15.0 mph 20.7 mph N/A   Overcast
10:52 AM 45.0 °F 38.2 °F 33.1 °F 63% 30.28 in 10.0 mi NW 15.0 mph 20.7 mph N/A   Overcast
10:59 AM 44.6 °F 37.8 °F 33.8 °F 66% 30.27 in 10.0 mi NNW 15.0 mph - N/A   Overcast
11:14 AM 44.6 °F 38.1 °F 35.6 °F 71% 30.27 in 10.0 mi NNW 13.8 mph 21.9 mph N/A   Overcast
11:52 AM 44.1 °F 37.4 °F 35.1 °F 71% 30.31 in 10.0 mi NNW 13.8 mph - N/A   Overcast
12:52 PM 46.0 °F 40.6 °F 36.0 °F 68% 30.32 in 10.0 mi NNW 11.5 mph - N/A   Overcast
1:35 PM 48.2 °F - 33.8 °F 58% 30.30 in 10.0 mi NNW 16.1 mph 23.0 mph N/A   Overcast
1:52 PM 46.9 °F - 34.0 °F 61% 30.32 in 10.0 mi NNW 15.0 mph - N/A   Overcast
2:52 PM 51.1 °F - 35.1 °F 54% 30.32 in 10.0 mi NNW 13.8 mph 21.9 mph N/A   Mostly Cloudy
3:52 PM 48.0 °F - 34.0 °F 58% 30.33 in 10.0 mi North 12.7 mph - N/A   Overcast
4:52 PM 52.0 °F - 35.1 °F 53% 30.32 in 10.0 mi NW 12.7 mph - N/A   Scattered Clouds
5:52 PM 51.1 °F - 35.1 °F 54% 30.32 in 10.0 mi NNW 13.8 mph 19.6 mph N/A   Scattered Clouds
6:52 PM 51.1 °F - 35.1 °F 54% 30.32 in 10.0 mi North 10.4 mph - N/A   Clear
7:52 PM 48.0 °F - 37.0 °F 66% 30.31 in 10.0 mi NNE 6.9 mph - N/A   Clear
8:52 PM 44.1 °F 40.8 °F 37.0 °F 76% 30.32 in 10.0 mi North 5.8 mph - N/A   Clear
9:52 PM 41.0 °F 38.0 °F 37.0 °F 86% 30.31 in 10.0 mi NE 4.6 mph - N/A   Clear
10:52 PM 39.0 °F - 36.0 °F 89% 30.34 in 10.0 mi Calm Calm - N/A   Clear
11:52 PM 37.0 °F - 36.0 °F 96% 30.35 in 10.0 mi Calm Calm - N/A   Clear